ECMWFFLT1_850_thetae_093.txt.gz
Theta_e
329 328 327 326 327 326 326 325 324 324 324 324 323 321 319 318 318 317 317 317 317 319 321 320 319 321 321 321 322 322 322 323 325 325 325 326 326 326 328 328 328 328 329 329 329 330 330 329 327 328 328 328 329 330 330 331 331 330 330 331 332 332 332
326 326 325 324 324 323 323 322 321 320 321 320 319 317 315 314 314 314 314 314 314 315 317 316 315 315 317 318 319 318 318 319 321 322 322 323 323 324 325 324 323 324 325 326 326 326 327 328 328 328 329 329 329 329 329 330 330 330 330 331 331 332 332
325 325 324 323 322 321 321 320 319 317 317 316 315 314 313 313 312 312 312 312 312 312 312 311 312 312 312 314 314 313 314 314 315 317 318 319 319 320 321 322 322 323 324 324 324 324 323 325 326 326 327 328 328 328 328 328 329 329 330 330 330 331 332
324 324 323 322 321 321 320 318 317 316 315 314 313 312 312 311 311 310 310 310 309 309 309 309 309 309 310 310 310 310 311 311 311 312 313 313 313 314 315 316 317 319 320 321 321 321 321 321 322 322 323 324 325 325 325 327 327 328 328 329 330 330 330
322 322 321 320 319 319 318 317 316 315 314 313 311 310 310 309 309 308 308 307 306 306 306 306 306 305 306 306 306 307 307 308 308 308 309 309 310 310 310 311 312 315 317 317 316 316 317 318 318 319 320 320 320 321 322 322 323 324 326 327 327 328 329
320 319 318 318 317 317 316 316 315 314 313 311 309 309 308 307 306 305 304 303 302 302 302 302 302 301 301 301 301 302 302 302 302 302 303 304 305 305 306 308 310 312 314 313 312 313 314 315 316 317 318 318 318 319 320 320 321 321 323 325 326 326 327
318 317 316 316 315 315 314 314 314 312 311 309 308 307 305 303 302 301 300 299 299 299 299 299 299 298 299 298 298 298 299 299 298 298 299 299 299 301 302 305 309 311 311 309 310 311 312 313 314 315 315 315 316 317 317 318 319 320 321 323 324 325 326
315 314 314 313 313 313 313 313 312 310 308 306 305 303 301 300 299 298 298 298 298 298 298 298 298 297 297 297 297 297 297 297 296 297 297 297 297 299 301 304 309 311 309 308 309 309 310 311 311 311 311 312 313 313 314 314 316 317 318 319 319 320 324
313 313 313 313 312 312 311 312 310 307 305 303 301 299 298 298 297 297 297 297 297 297 297 297 297 297 297 297 296 296 297 297 297 297 296 297 299 300 301 303 308 309 306 306 308 307 308 309 308 309 309 310 310 310 311 311 312 313 313 313 313 311 315
312 312 312 312 311 310 309 308 306 304 302 300 298 297 297 297 297 297 296 296 296 296 296 296 296 296 296 296 296 296 296 297 299 298 296 298 300 301 303 304 306 306 302 302 303 304 306 308 307 307 308 308 309 309 309 309 310 310 308 309 311 308 306
311 311 311 311 311 309 306 304 303 301 299 298 297 296 296 296 296 296 296 296 296 296 296 296 295 296 295 296 296 297 297 299 301 301 300 299 298 300 305 305 303 302 299 299 300 302 305 306 304 305 306 307 307 307 308 308 308 308 307 307 308 307 303
311 310 310 310 308 305 303 301 299 298 297 296 296 296 296 295 295 295 295 295 295 295 296 295 295 296 295 295 297 298 299 300 302 303 303 301 298 301 305 305 302 300 299 301 301 300 303 303 301 302 304 305 306 305 306 306 306 306 305 306 306 305 304
310 308 307 306 304 301 300 298 297 297 296 296 296 295 295 295 296 296 295 295 295 295 295 295 295 295 295 294 295 297 298 300 301 302 303 303 301 302 304 304 302 301 301 302 301 300 301 300 298 299 301 303 303 304 304 304 305 304 302 303 304 302 302
308 305 303 301 300 299 297 296 296 296 296 295 296 295 295 295 296 296 295 295 295 294 295 295 294 295 295 294 294 295 297 299 301 301 302 303 303 303 303 303 302 301 301 301 301 301 301 300 299 299 300 301 302 302 303 302 303 303 301 300 302 301 300
303 301 300 299 298 297 296 296 296 295 295 295 296 295 295 295 296 296 295 294 294 295 294 294 294 294 295 295 295 296 296 298 300 301 302 302 303 303 303 303 302 301 301 301 300 300 300 299 299 299 300 300 301 301 301 301 301 302 302 300 300 301 301
300 299 299 298 297 297 296 296 296 295 295 295 295 295 295 295 296 296 295 294 294 295 294 294 295 294 294 295 296 297 298 298 300 301 302 302 302 303 303 302 301 300 300 300 299 299 299 298 298 299 299 299 300 300 300 300 301 301 301 301 301 302 302
299 298 298 297 297 296 295 295 296 295 295 295 295 296 296 296 295 294 294 294 294 294 294 294 294 294 294 294 295 297 299 300 300 301 302 303 302 302 302 301 300 299 299 299 298 298 298 298 298 298 299 299 299 299 299 300 300 300 300 301 301 301 302
298 297 296 296 296 295 294 295 295 295 295 295 296 296 297 298 297 294 294 294 294 294 294 294 294 294 294 295 296 297 299 300 301 302 302 303 302 301 301 300 300 299 299 298 298 298 298 297 297 297 298 298 298 299 299 299 299 299 300 300 300 300 301
296 296 296 295 295 294 294 294 295 296 296 295 296 296 296 296 296 294 293 294 294 294 294 294 294 293 294 296 298 297 298 301 302 302 302 302 301 301 301 300 299 299 298 298 298 298 297 297 297 297 297 298 298 298 298 298 298 298 299 299 299 299 300
296 296 295 295 295 294 294 294 294 295 296 296 297 297 296 294 294 294 293 293 293 294 294 293 294 293 293 296 299 298 298 300 301 300 301 301 300 300 300 300 299 298 298 298 297 297 297 296 296 296 297 297 297 297 297 297 298 298 298 299 299 299 299
295 295 295 295 294 294 294 294 294 294 294 296 297 298 298 296 294 293 293 293 293 293 293 293 293 294 293 295 299 300 299 299 300 300 300 300 300 300 300 299 299 298 298 297 297 296 296 295 295 295 296 297 297 297 297 297 298 298 298 298 298 299 299
295 295 295 295 294 294 294 294 294 294 294 294 295 296 297 297 295 293 293 293 293 293 293 293 293 293 293 293 296 300 301 300 301 300 300 300 300 300 299 299 299 298 297 297 296 296 295 295 295 295 296 296 296 297 297 297 297 298 298 298 298 298 298
294 294 294 294 294 294 294 294 293 293 293 294 294 295 295 296 294 293 293 293 293 293 293 293 293 293 293 293 295 299 301 301 300 300 300 300 299 299 299 299 298 298 297 297 296 295 294 294 295 295 296 296 296 297 297 297 297 297 297 297 298 298 298
295 294 294 294 294 294 294 294 293 293 293 293 293 293 293 294 293 292 293 293 293 293 293 293 293 293 293 294 295 298 300 301 300 300 299 299 299 299 298 298 298 298 297 297 296 295 294 294 295 295 296 296 296 297 297 297 297 297 297 297 297 297 297
295 295 295 295 295 294 294 294 294 293 293 293 293 293 293 293 293 292 292 293 292 293 293 293 293 293 293 294 295 298 300 300 300 299 299 299 299 298 298 297 297 297 296 296 295 293 293 294 294 295 296 296 296 297 296 296 297 297 297 297 297 296 296
297 296 296 295 294 295 294 294 293 293 293 293 292 293 293 294 294 294 293 292 293 292 293 293 293 293 293 294 295 298 300 300 300 299 299 299 298 298 297 297 296 296 296 296 294 293 293 294 294 296 297 297 297 296 296 296 297 296 296 296 296 296 296
298 296 296 296 296 295 294 294 294 294 294 293 293 293 293 293 294 295 294 293 292 292 292 292 293 293 293 294 296 299 300 300 300 299 299 299 298 298 298 297 296 295 295 295 294 292 293 293 294 296 297 296 296 296 296 296 296 295 295 295 296 296 296
298 298 297 297 296 295 294 294 296 296 296 295 295 294 293 293 294 295 295 294 293 292 292 292 292 293 293 294 297 299 300 300 300 299 299 298 298 298 297 297 295 294 294 294 293 292 293 293 294 296 296 296 296 296 296 296 295 295 295 295 296 296 296
299 299 298 297 295 293 294 295 296 296 296 296 295 293 293 293 293 294 295 296 294 292 292 292 292 292 293 294 296 298 299 299 299 299 298 298 298 298 297 296 296 294 293 293 292 292 293 293 293 295 296 296 295 296 295 295 295 295 295 295 296 296 296
299 298 298 297 295 294 295 297 297 297 297 297 296 294 294 293 292 292 294 295 295 293 291 292 292 292 293 293 295 297 298 298 299 299 298 297 298 298 297 296 295 294 292 292 292 292 292 292 293 294 295 295 295 295 295 294 294 295 295 295 296 296 296
299 299 299 297 294 295 297 298 298 298 299 298 297 297 296 295 293 292 291 292 294 293 292 291 292 292 292 292 293 296 297 297 298 299 297 297 298 298 296 296 295 293 291 291 292 292 292 292 292 293 294 295 294 295 294 294 294 295 295 295 296 296 296
299 299 297 296 295 295 296 297 298 299 299 299 299 299 298 298 296 294 292 291 291 292 292 291 291 291 292 292 292 294 295 295 296 298 298 297 297 297 296 295 295 293 291 291 291 291 292 292 292 293 294 294 294 294 294 294 294 295 295 295 296 296 296
298 298 296 295 295 296 296 297 299 300 299 299 299 298 298 298 297 297 296 294 292 291 291 291 291 291 291 292 292 292 293 293 294 296 298 297 297 297 296 295 295 293 291 291 291 291 292 292 293 293 294 294 294 294 294 294 294 295 295 295 295 295 295
297 296 295 294 295 296 296 297 299 299 299 298 298 298 298 298 298 298 298 298 295 292 291 291 291 291 291 291 291 291 292 292 292 294 296 297 296 296 296 296 295 293 292 292 292 292 292 293 293 293 294 293 293 294 294 294 294 295 295 295 295 295 295
295 295 294 295 296 296 296 298 299 298 297 297 298 299 299 299 299 299 299 299 298 296 295 293 291 290 291 291 291 291 291 291 292 292 294 296 297 296 296 296 294 292 292 292 292 292 293 293 293 293 293 293 293 294 294 294 294 295 294 294 294 295 295
294 294 294 295 296 296 296 298 299 298 298 299 299 300 299 299 299 299 299 299 299 299 297 295 292 290 291 291 291 291 290 290 291 291 292 295 296 295 295 295 293 292 292 292 292 293 293 294 294 293 294 294 294 294 294 294 294 294 294 294 294 294 294
294 295 295 296 297 297 297 298 299 300 300 300 300 300 299 299 299 299 299 299 299 298 298 297 294 291 291 291 291 291 290 290 291 290 291 294 295 294 293 293 293 293 293 293 293 293 294 294 294 294 294 294 294 294 294 294 294 294 294 294 294 294 294

ECMWFFLT1_850_thetae_096.txt.gz
Theta_e
331 329 327 326 325 325 325 325 324 324 324 323 321 319 317 316 317 315 315 315 314 315 315 313 313 314 314 313 313 313 314 315 315 316 316 316 316 317 318 319 321 321 321 322 323 323 323 323 323 323 324 325 325 326 326 327 328 328 329 329 329 329 329
327 326 325 324 323 323 323 323 323 321 320 319 317 315 314 314 314 313 313 313 312 312 312 311 312 312 311 311 311 311 311 312 312 312 312 312 312 312 312 313 314 316 316 318 319 319 318 319 320 320 320 320 319 318 319 321 323 325 326 327 327 327 327
325 325 324 323 322 321 320 320 320 318 316 315 313 313 312 312 312 311 311 310 310 310 310 309 309 309 309 308 308 308 308 308 308 308 309 309 309 310 310 311 312 314 314 315 315 315 314 316 316 316 316 318 318 315 314 317 318 319 321 322 324 324 325
325 324 323 322 321 320 319 318 316 315 313 311 311 311 310 310 309 309 309 308 307 307 307 306 306 305 305 304 304 304 304 304 304 304 304 304 305 306 307 310 311 313 313 312 311 312 312 313 314 314 314 315 314 312 311 312 312 315 318 320 322 322 322
324 323 322 322 320 320 318 316 315 314 311 309 309 308 307 307 306 305 305 304 304 303 303 302 301 301 301 301 301 300 300 300 300 300 300 300 300 301 304 308 311 312 310 308 310 310 310 310 311 312 311 310 309 305 303 305 305 307 310 314 318 321 322
322 322 321 320 318 318 316 315 314 312 309 307 306 304 303 303 302 302 301 301 301 300 300 299 299 299 299 299 298 298 298 298 298 298 298 298 298 299 303 308 311 311 306 306 310 309 308 309 310 310 309 308 308 306 303 304 304 301 302 306 310 313 315
319 320 319 317 316 316 314 314 313 309 305 304 303 301 300 299 300 300 299 299 299 298 298 298 298 298 298 298 298 298 297 297 297 297 298 298 298 299 301 307 310 306 300 303 305 304 307 309 308 309 308 307 308 307 306 305 305 305 303 301 301 303 303
317 317 316 315 314 313 313 313 311 306 302 301 299 299 299 298 298 298 298 298 298 298 298 297 298 298 297 297 297 297 297 296 296 297 298 298 299 300 299 302 306 301 296 299 299 301 306 307 306 307 307 307 307 306 306 306 305 305 304 302 301 301 300
314 314 313 313 312 312 312 310 306 301 299 298 298 298 298 297 297 297 297 297 297 297 297 297 297 297 297 297 297 297 297 297 296 296 296 296 298 301 298 296 299 297 295 297 297 299 302 302 302 302 304 306 306 306 306 305 304 302 302 303 301 298 297
312 312 311 311 311 311 310 305 300 298 298 297 297 297 297 297 297 297 297 297 297 297 297 297 297 297 297 297 296 297 299 300 299 295 295 296 299 303 301 295 295 295 296 296 296 297 298 297 297 297 299 303 304 304 305 304 304 301 299 301 300 298 296
312 311 310 310 310 308 304 300 298 298 297 297 297 296 296 296 296 296 296 296 297 297 297 296 296 296 296 297 297 299 300 300 300 298 297 296 299 303 302 297 294 295 296 296 297 299 299 297 296 297 298 300 302 303 303 303 303 301 299 300 299 299 298
312 311 311 310 309 305 301 299 298 297 297 297 297 296 296 296 296 296 296 296 296 296 296 296 296 295 295 296 296 299 301 299 300 302 302 300 299 302 302 300 297 296 297 297 297 299 299 297 296 297 298 299 300 301 301 302 302 300 300 300 300 299 299
311 311 310 308 305 301 299 298 297 297 296 297 297 297 296 296 296 295 295 296 296 295 295 296 296 296 295 295 296 299 301 300 300 303 303 303 303 302 302 301 298 297 297 296 296 297 297 296 297 297 298 298 299 299 300 300 301 300 300 300 300 300 299
310 310 307 304 301 299 298 297 297 297 296 296 297 297 296 296 295 295 295 295 295 295 295 295 296 296 295 296 296 297 298 299 300 302 303 303 303 302 302 300 298 296 296 296 296 296 296 296 296 297 298 298 298 299 299 300 300 300 300 299 299 299 299
309 307 303 300 299 298 297 296 296 296 296 296 297 296 297 297 295 295 295 295 295 295 295 295 295 295 296 297 298 298 299 300 302 303 303 302 301 301 302 301 299 297 297 297 297 296 296 296 296 297 297 297 298 298 299 299 299 299 299 298 298 298 299
305 303 300 299 298 297 296 296 296 296 295 296 296 296 296 296 295 295 295 295 295 295 295 295 294 294 295 297 299 301 302 302 303 304 303 302 301 301 301 301 299 298 298 297 296 296 296 296 296 296 296 297 297 298 298 298 298 298 298 298 298 298 298
302 300 299 299 298 297 296 296 296 295 296 297 298 297 296 295 294 294 294 294 294 294 294 294 294 296 297 296 298 302 304 303 303 303 302 301 301 301 300 300 299 298 297 296 295 295 295 295 295 295 295 296 297 297 297 297 297 298 298 298 298 298 298
300 299 298 298 298 296 295 295 295 296 297 298 299 300 298 295 294 294 294 294 294 294 294 294 294 297 300 299 298 300 302 302 301 301 300 300 301 301 300 300 299 297 296 296 295 295 294 294 294 294 295 296 296 297 297 297 297 297 297 298 298 298 298
298 298 298 297 296 295 295 296 296 296 296 296 297 297 296 294 294 294 294 294 294 294 294 294 293 294 298 301 301 300 301 301 300 300 301 301 300 300 300 300 299 297 296 296 295 295 294 293 294 294 295 296 296 296 296 297 297 297 297 298 297 297 298
297 297 297 296 295 295 296 297 297 297 298 298 296 294 294 294 294 294 294 294 294 294 294 293 294 294 294 298 301 301 301 302 301 301 301 301 300 300 299 299 299 297 296 296 295 294 293 293 294 294 295 296 296 296 296 297 297 297 297 297 297 297 297
296 296 296 296 295 295 296 296 297 298 300 300 299 297 294 293 293 293 293 294 293 293 294 293 293 294 294 296 299 301 301 301 301 301 301 300 300 298 297 298 299 298 296 296 295 294 293 293 293 294 295 296 296 296 296 296 297 296 296 296 296 297 297
296 296 296 296 295 295 295 295 295 296 298 300 301 300 296 293 293 293 293 293 293 293 294 294 293 293 294 296 297 300 301 301 301 300 300 300 299 297 296 296 298 297 296 295 294 293 293 293 293 294 295 296 296 296 296 296 296 296 296 296 296 296 296
295 295 295 295 295 295 295 295 295 296 296 297 299 298 295 293 293 293 293 293 293 294 293 293 293 293 294 295 297 299 301 301 300 300 300 300 299 298 297 296 296 296 295 295 294 293 293 293 293 293 295 296 296 296 296 296 296 296 296 296 296 296 296
295 295 295 294 295 295 295 295 295 295 294 294 295 295 293 293 293 293 293 293 293 293 293 293 293 293 294 295 296 299 301 301 300 300 300 300 299 299 298 296 295 295 295 294 294 292 292 293 292 293 294 296 297 296 296 296 296 296 295 295 295 296 296
295 295 295 295 295 295 295 295 294 294 294 294 294 294 293 293 293 292 293 293 293 293 293 293 293 293 294 295 296 298 300 301 300 299 299 300 299 299 298 296 295 294 294 294 293 292 292 292 292 292 293 295 296 296 296 296 296 295 294 294 295 295 296
295 295 296 295 295 296 296 294 294 294 294 294 293 294 295 293 293 293 293 293 293 293 293 293 293 293 293 295 296 298 300 301 300 299 299 299 299 299 298 296 295 295 294 293 292 292 291 292 292 292 293 294 296 296 295 295 295 294 294 294 295 295 295
296 296 296 296 297 296 295 293 293 293 293 293 293 294 295 294 293 293 292 292 292 292 292 292 292 293 293 295 297 299 300 300 300 300 299 298 299 299 298 296 295 295 294 292 291 291 291 292 292 292 292 294 295 295 295 295 295 294 294 294 295 295 295
296 296 296 297 297 295 293 294 294 294 294 294 293 293 293 294 294 293 292 292 292 292 292 292 292 292 293 294 296 298 300 300 300 300 298 297 299 299 297 296 295 295 294 292 291 291 291 291 292 292 292 293 294 295 295 294 294 294 294 294 295 295 295
297 297 297 297 295 294 295 296 295 295 294 294 293 293 293 294 294 294 293 292 292 292 292 292 292 292 292 293 294 296 298 299 299 300 298 297 298 299 297 296 295 295 294 292 291 291 291 291 291 292 293 293 294 294 294 294 294 294 294 294 295 295 295
298 298 297 296 295 294 295 295 295 294 294 293 293 293 293 293 293 294 293 292 292 292 292 291 292 292 292 292 292 293 295 297 298 299 299 297 298 298 297 296 296 295 294 292 291 292 292 292 292 293 293 293 294 294 294 294 294 294 294 294 295 295 295
298 298 297 295 295 295 295 295 296 295 294 294 294 293 293 292 292 292 292 292 292 292 292 291 292 291 291 292 292 292 293 294 295 297 298 298 297 297 297 297 296 296 294 292 292 292 292 292 293 294 294 294 294 294 294 294 294 294 294 294 295 295 295
299 299 297 295 295 296 297 297 298 297 297 297 298 298 296 294 292 292 292 292 292 292 292 291 291 291 291 291 291 292 292 292 293 294 296 297 298 297 297 297 297 295 293 292 292 292 293 293 294 294 294 294 294 294 294 294 294 294 294 294 295 294 294
300 299 297 295 296 297 297 297 298 299 299 300 300 299 298 296 295 294 293 292 292 292 292 291 291 291 291 291 291 291 291 291 292 292 293 295 296 297 296 296 295 293 292 292 292 293 293 293 294 294 294 294 294 294 294 294 294 294 294 294 294 294 294
299 298 296 296 296 296 297 299 300 300 300 300 299 298 298 297 297 297 296 296 295 294 293 292 291 291 291 291 291 291 291 291 291 291 291 292 293 295 295 293 292 292 292 292 292 293 293 294 294 294 294 294 294 294 294 294 294 294 294 294 294 294 294
298 296 295 296 296 296 298 300 301 300 299 298 298 299 300 300 300 300 299 299 298 297 296 294 292 291 291 291 291 291 291 291 291 291 291 291 292 293 293 292 292 293 292 292 293 293 293 294 294 295 294 294 294 294 294 294 294 294 294 294 294 294 294
297 295 295 295 295 296 298 300 299 298 297 297 298 300 300 300 300 300 300 300 300 299 297 296 293 291 291 291 291 291 291 291 291 291 291 291 291 292 292 292 293 293 293 294 294 294 293 293 294 294 294 294 294 294 294 294 293 293 294 294 294 293 294
296 295 295 295 295 296 298 299 298 298 299 300 300 300 300 300 300 300 300 300 299 298 297 296 294 291 290 291 291 291 291 291 291 291 290 291 291 292 292 293 294 294 295 295 295 294 293 293 293 294 294 294 294 294 294 294 293 293 293 293 293 293 293

ECMWFFLT1_850_thetae_102.txt.gz
Theta_e
332 331 330 330 329 328 327 327 326 327 327 328 328 328 328 326 323 320 319 318 317 315 314 313 312 312 311 310 310 309 308 308 307 307 307 307 308 310 312 313 313 313 313 312 311 309 306 305 303 302 301 300 299 299 298 298 298 298 300 301 302 304 306
331 331 330 329 328 327 326 326 326 326 327 328 328 327 324 321 317 316 315 314 313 312 312 311 310 310 309 309 308 307 306 305 305 304 304 304 305 305 306 307 306 306 305 305 304 303 302 301 300 300 300 300 299 298 297 297 296 297 298 298 298 299 299
331 331 330 328 327 326 325 325 325 326 327 327 326 323 319 316 314 314 313 312 312 311 310 309 309 308 307 306 305 304 303 302 301 301 301 302 302 302 302 302 301 300 300 300 299 298 298 298 298 298 299 299 298 297 297 297 296 296 297 297 297 297 297
330 330 328 327 327 327 326 325 325 326 326 325 321 318 315 313 312 312 311 311 310 309 308 307 306 305 304 303 302 300 300 300 299 299 299 300 300 300 299 299 298 297 298 297 296 296 296 296 297 297 297 298 297 296 296 296 296 296 297 297 297 297 297
328 327 327 326 327 327 325 324 324 324 322 320 316 314 313 312 311 310 310 309 308 306 305 304 303 302 301 300 299 299 299 299 299 299 299 299 298 298 298 297 296 296 296 296 295 295 295 295 295 296 296 297 297 297 296 296 296 297 297 297 297 297 297
327 326 326 326 326 325 324 322 320 319 316 315 313 311 311 310 309 308 307 306 305 303 302 300 300 300 299 299 299 298 298 298 298 298 298 298 297 297 296 296 295 295 295 295 295 295 295 295 295 296 296 296 297 297 296 296 296 296 297 297 297 297 297
326 326 325 325 324 323 322 319 316 314 312 312 311 309 308 307 306 305 304 303 301 300 299 299 299 299 298 298 298 298 298 298 297 297 297 296 296 296 295 295 295 295 295 295 295 295 295 296 295 296 296 296 296 296 296 296 296 296 296 296 296 296 297
326 325 324 324 322 321 321 318 313 310 310 309 308 307 305 304 303 302 301 300 299 299 299 298 298 298 298 297 297 297 298 297 297 297 296 296 295 295 295 295 295 295 295 295 295 295 295 295 295 295 295 296 296 296 296 296 296 296 296 296 296 296 296
324 324 323 322 320 319 319 316 311 308 308 307 305 304 302 301 300 299 299 299 298 298 298 298 298 298 298 297 297 297 297 297 296 296 295 295 295 294 295 295 295 295 295 295 295 295 295 295 295 295 295 295 296 296 295 295 296 296 295 296 296 296 296
323 322 321 321 319 318 317 314 308 306 304 303 302 301 300 299 298 298 298 298 298 297 297 297 298 298 298 297 297 297 297 296 296 295 295 295 295 294 295 295 295 295 295 295 294 294 294 294 294 294 295 295 295 295 295 295 295 296 295 295 296 296 296
321 321 320 319 318 318 315 309 305 303 301 301 300 299 299 298 298 297 297 297 297 297 297 297 298 298 297 297 297 297 296 296 295 295 295 295 295 295 295 294 294 294 294 294 294 294 294 294 294 294 294 295 295 294 294 295 295 295 295 295 295 295 295
319 319 318 317 317 317 312 305 301 300 300 299 299 298 298 297 297 297 297 297 297 297 297 297 297 297 297 297 297 296 296 295 295 295 295 295 294 294 294 294 294 294 294 294 294 294 294 293 293 293 294 294 294 294 294 294 295 295 295 295 295 295 295
317 317 317 316 315 313 307 300 299 299 299 299 298 298 297 297 297 297 297 297 297 297 297 297 297 297 297 296 296 296 295 295 295 295 295 294 294 294 294 294 294 294 294 294 294 293 293 293 293 293 293 294 294 294 294 295 295 295 294 294 294 295 295
316 316 315 313 312 308 302 298 298 298 298 298 297 297 297 297 297 297 297 297 297 297 297 297 296 296 296 296 296 296 295 294 295 295 295 294 294 294 294 294 294 293 293 293 293 293 293 293 293 293 293 293 294 294 295 295 295 295 294 294 294 294 294
314 313 312 310 306 302 298 298 299 298 298 297 297 297 297 297 297 297 297 297 297 297 297 297 296 296 296 296 296 295 294 294 295 295 295 294 294 293 293 293 293 293 293 293 293 293 293 292 293 292 292 293 293 294 294 295 295 295 294 294 293 294 294
310 310 309 306 301 299 298 299 299 298 297 297 297 297 297 297 297 296 297 297 296 297 296 296 296 296 296 296 295 295 294 294 294 294 294 294 293 293 293 293 293 293 293 293 293 293 292 292 292 292 292 292 293 293 294 294 295 294 294 293 293 294 294
308 308 307 303 300 299 299 299 298 297 297 297 297 297 296 296 296 296 296 296 296 296 296 296 296 296 296 295 295 295 294 294 294 294 293 293 293 293 293 293 293 293 293 293 293 293 292 292 292 292 292 292 292 293 294 294 294 294 293 293 294 294 294
309 307 305 301 300 300 299 298 298 297 297 297 297 296 296 296 296 296 296 296 295 295 295 296 295 295 295 296 296 296 295 294 294 293 293 293 293 293 293 293 293 293 293 293 293 293 292 292 292 292 292 292 293 293 293 293 293 293 293 293 294 294 294
308 306 303 301 300 299 298 297 297 297 297 297 296 296 296 296 296 295 295 295 295 295 295 295 295 295 296 296 297 297 296 294 294 294 294 294 294 293 293 293 293 293 292 292 292 292 292 292 292 292 292 292 293 293 293 293 293 293 293 293 293 294 294
307 304 302 300 299 298 297 297 297 296 296 296 296 296 296 296 295 295 295 295 295 295 295 295 295 296 296 296 297 297 296 295 295 295 295 295 295 295 293 292 292 292 292 292 292 292 292 292 292 291 292 292 293 293 293 293 293 293 293 293 293 293 294
306 303 301 300 298 297 297 296 296 296 296 296 296 296 295 295 295 295 295 295 295 295 295 294 295 296 297 297 297 297 297 297 297 297 296 296 297 296 294 292 292 292 292 292 292 292 291 291 292 292 292 293 293 293 293 293 293 294 293 293 293 293 293
304 301 300 299 298 297 297 296 296 296 296 295 295 295 295 295 295 295 295 295 295 295 294 294 295 296 297 297 297 297 298 298 299 298 297 297 298 297 295 292 292 292 292 292 292 292 291 292 292 292 292 293 293 293 294 294 294 294 293 293 293 293 293
303 302 301 299 298 297 297 296 296 296 296 295 295 295 295 295 295 295 295 295 294 294 294 294 295 296 297 296 296 296 297 298 299 298 298 298 298 298 296 293 292 292 292 291 292 292 292 292 292 292 293 293 293 293 294 294 294 294 293 293 293 293 293
303 302 301 299 298 297 296 296 296 296 295 295 295 295 295 295 295 294 294 294 294 294 294 294 295 296 297 296 296 296 297 298 298 298 298 298 298 298 297 294 292 292 291 291 292 292 292 292 292 292 292 292 293 293 294 294 293 293 293 293 293 293 293
303 302 301 299 298 297 296 296 296 295 295 295 295 295 294 294 294 294 294 294 294 294 294 294 295 295 296 296 296 298 298 298 298 297 297 298 298 298 297 294 292 292 291 292 292 292 292 292 292 292 292 292 292 293 293 293 293 293 293 292 292 292 293
303 302 301 299 298 298 297 297 297 296 295 294 294 294 294 294 294 294 294 294 294 294 294 294 295 295 296 297 297 299 299 298 298 297 297 297 298 297 296 294 292 291 291 292 292 292 292 292 292 292 292 292 292 292 292 292 292 292 292 292 292 292 293
302 301 301 300 299 298 297 297 297 296 295 294 294 294 294 294 294 294 294 294 294 294 293 294 294 295 296 297 298 298 298 298 298 296 296 296 297 297 295 293 291 291 291 291 292 292 291 291 291 291 291 292 292 291 291 291 291 291 291 292 292 293 294
302 301 300 300 299 298 297 296 296 295 294 294 294 294 294 294 294 294 293 293 293 293 293 293 293 294 295 296 297 298 298 298 297 296 295 295 296 295 293 292 291 291 291 291 292 292 292 291 291 291 291 291 291 291 291 291 290 290 291 292 293 294 295
301 300 299 298 297 296 296 295 295 295 294 293 293 293 293 294 294 293 293 293 293 293 293 292 292 293 293 294 295 296 296 296 296 295 294 294 294 293 291 291 291 291 291 292 292 292 291 291 291 291 291 291 291 291 291 291 290 291 292 293 294 294 295
300 299 298 297 296 296 295 295 294 294 294 293 293 293 293 293 293 293 293 292 292 293 292 292 292 292 292 292 293 294 294 295 295 294 293 293 292 291 291 291 291 291 292 292 291 291 291 291 291 291 291 291 291 291 291 290 290 291 292 293 294 295 295
299 298 296 296 295 295 295 294 294 294 294 294 294 293 293 293 293 293 292 292 292 292 292 292 292 292 292 292 292 292 292 292 293 292 292 292 291 291 291 291 291 292 292 291 291 291 291 291 291 291 291 291 291 290 290 290 290 291 292 293 293 294 295
297 296 295 295 295 295 294 294 294 294 294 294 294 293 293 293 292 292 292 292 292 292 292 292 292 291 291 291 291 292 291 292 292 291 291 291 291 291 291 291 291 291 291 291 291 291 291 291 291 291 291 291 290 290 290 290 290 291 292 293 294 294 295
296 295 295 295 295 295 294 294 294 294 294 294 293 293 293 292 292 292 292 292 292 292 292 292 292 291 291 291 291 291 291 291 291 291 291 291 291 291 291 291 291 291 291 291 291 290 290 290 290 291 291 290 290 290 290 290 290 291 292 293 294 294 295
296 296 295 295 295 294 294 294 294 293 293 293 293 293 292 292 292 292 292 292 292 292 292 292 292 292 291 291 291 291 291 292 291 291 291 291 291 291 291 291 291 292 292 292 291 290 290 290 290 290 290 290 290 290 290 290 290 291 292 293 293 294 295
297 296 296 296 295 294 294 294 293 293 293 293 293 293 292 292 293 293 293 293 293 292 292 292 292 292 292 292 292 292 292 292 291 291 291 291 292 292 292 292 292 292 292 292 291 290 290 290 290 290 290 290 291 291 291 290 290 290 291 292 293 294 295
298 297 297 296 295 294 294 294 293 293 293 292 292 293 293 294 295 295 295 295 294 294 293 292 292 292 292 292 292 292 292 292 291 291 292 292 292 293 293 293 293 293 293 292 291 290 290 290 290 290 290 290 291 291 291 291 290 290 290 292 293 294 294
298 298 297 296 295 294 294 293 293 294 294 293 293 294 296 297 297 297 297 296 295 295 294 293 292 292 292 292 292 292 292 292 292 292 293 293 293 293 293 293 293 293 293 292 292 290 290 290 290 289 290 290 290 291 291 291 291 290 290 291 293 293 294

ECMWFFLT1_850_thetae_108.txt.gz
Theta_e
331 331 331 330 329 330 330 331 332 332 331 329 328 326 326 326 326 326 324 320 317 315 313 312 311 310 309 309 308 307 305 303 302 302 302 302 302 302 302 301 301 301 301 300 300 299 299 298 298 297 296 296 296 296 296 296 295 296 296 295 295 295 295
331 331 331 331 330 331 331 331 331 330 328 326 324 324 324 324 324 321 318 315 314 312 311 310 309 308 308 307 305 303 302 302 301 301 301 301 301 301 301 301 301 301 300 300 299 299 299 298 298 297 296 296 296 295 295 295 295 295 295 295 295 295 295
331 330 331 331 331 331 331 330 329 327 325 323 322 323 322 320 318 316 314 313 311 310 309 308 307 307 305 304 302 301 301 301 301 301 301 301 301 301 300 300 300 300 300 300 300 300 299 298 298 297 297 296 296 295 295 295 295 295 295 295 295 295 295
331 331 331 331 331 330 330 329 327 325 324 322 321 321 318 316 314 313 312 310 309 308 307 306 305 304 303 302 301 301 301 301 301 301 301 301 300 300 300 300 300 300 300 300 299 299 298 298 298 297 297 296 296 295 295 295 295 295 295 295 295 295 295
332 332 331 331 330 329 329 328 326 325 324 322 320 318 315 313 312 311 310 308 307 306 305 304 303 301 301 301 300 300 300 301 301 300 301 300 300 300 300 300 299 299 299 298 298 297 297 297 296 296 296 296 296 295 295 295 295 294 295 294 294 294 294
331 331 330 330 329 328 327 326 325 324 323 321 319 316 312 311 310 309 307 306 305 304 302 301 301 300 300 300 300 300 300 300 300 300 300 300 300 300 299 298 298 298 298 297 296 296 296 296 296 297 296 296 296 295 295 295 295 295 295 294 294 294 294
330 329 329 330 329 327 325 324 324 323 322 319 315 312 310 309 308 306 305 304 302 301 300 300 299 299 299 299 299 300 300 300 300 300 300 299 299 299 298 297 297 297 297 296 296 296 296 296 296 296 296 296 296 296 295 295 294 295 295 294 294 294 294
329 330 330 329 327 325 324 323 322 322 319 315 312 310 308 306 305 303 302 301 300 299 299 299 299 299 298 299 299 299 300 299 299 299 299 298 298 298 297 296 296 296 296 295 295 295 295 295 295 295 295 296 296 296 296 295 294 294 294 294 294 294 294
330 330 329 327 325 324 324 322 321 319 316 311 309 307 305 303 302 301 300 300 299 299 299 298 298 298 298 299 299 299 299 299 298 299 298 298 297 297 296 296 295 295 295 295 295 295 295 294 294 294 294 295 295 295 295 295 295 294 294 294 294 294 294
330 329 327 326 325 324 322 320 319 316 311 307 306 305 303 301 300 300 299 299 298 298 298 298 298 298 298 298 299 299 299 298 298 298 297 297 296 296 295 295 295 295 295 294 294 294 294 294 294 294 294 294 293 293 294 294 294 294 294 293 293 294 294
328 327 326 325 324 322 321 319 317 313 308 304 304 302 301 300 300 299 298 298 298 298 298 298 298 298 298 298 298 298 298 297 297 297 297 296 296 295 295 295 295 295 294 294 294 294 294 294 294 294 293 293 293 293 292 293 293 294 293 293 293 293 293
327 326 324 323 322 321 319 317 315 311 305 302 302 301 300 300 299 299 298 298 298 298 298 298 297 298 298 298 298 298 298 297 297 297 296 295 295 295 295 295 295 295 294 294 294 294 293 293 293 293 293 293 292 292 292 292 293 293 293 293 293 293 293
325 324 323 322 320 319 317 315 314 309 302 301 301 300 300 299 299 298 298 298 298 297 297 297 297 297 297 297 297 297 297 296 296 296 295 295 295 294 294 294 294 294 294 293 293 293 293 293 293 293 292 292 292 292 292 292 292 293 293 292 292 293 293
324 322 321 320 319 317 315 314 312 306 301 300 300 299 299 299 298 298 298 298 297 297 297 297 297 297 297 297 297 296 296 296 296 295 295 295 295 294 294 294 294 294 293 293 293 293 293 293 293 292 292 292 292 292 292 292 292 292 293 292 292 292 293
322 321 319 318 317 315 314 313 310 304 300 299 299 299 298 298 298 298 297 297 297 297 297 297 297 297 296 297 296 296 296 295 295 295 295 295 294 294 294 294 293 293 293 293 293 293 293 293 293 292 292 292 292 292 292 292 292 292 292 292 292 292 293
320 319 318 317 316 314 313 312 307 302 299 298 298 298 298 298 298 297 297 297 296 296 296 296 296 296 296 296 296 296 295 295 295 295 294 294 294 294 293 293 293 293 293 293 293 293 293 292 292 292 292 292 292 292 292 292 292 291 291 292 292 292 293
319 318 316 315 314 313 313 310 304 300 299 298 297 298 298 297 297 297 296 296 296 296 296 296 296 296 296 295 295 295 295 295 295 294 294 294 293 293 293 293 293 293 292 292 292 292 292 292 292 292 292 292 292 292 292 291 291 291 291 291 292 293 293
317 317 315 314 312 312 311 308 302 299 299 298 297 297 297 297 297 296 296 296 296 296 296 296 296 296 296 295 295 295 295 294 294 294 294 293 293 293 293 293 293 292 292 292 292 292 292 292 292 292 292 292 292 292 291 291 291 291 291 291 292 293 293
316 315 314 313 312 311 309 304 299 298 299 298 297 297 297 296 296 296 296 296 295 295 295 296 295 295 296 295 295 295 294 294 293 293 293 293 293 293 292 293 293 292 292 292 292 292 292 292 292 292 292 292 292 291 291 291 291 291 291 292 292 293 293
314 314 313 312 311 309 306 301 299 299 299 298 297 297 296 296 295 295 295 295 295 295 295 295 295 296 296 295 295 294 294 294 293 293 293 293 293 293 293 293 292 292 292 292 292 291 291 292 291 291 291 291 291 291 291 291 291 291 291 292 292 292 293
313 312 311 310 309 307 303 300 299 300 299 298 297 296 295 295 295 295 295 295 295 295 295 295 295 296 296 295 295 294 294 294 294 293 293 293 293 293 292 292 292 292 292 291 291 291 291 291 291 291 291 291 291 291 291 290 291 291 291 291 292 292 293
312 310 310 309 307 304 301 300 300 299 298 298 296 295 295 295 295 295 295 294 294 294 295 295 295 296 295 295 295 295 295 294 294 293 293 293 293 293 292 292 292 292 291 291 291 291 291 291 291 291 291 291 291 291 291 290 290 291 291 291 292 292 293
310 309 308 308 305 302 300 300 300 299 298 297 296 294 294 294 294 294 294 294 294 294 294 295 295 295 295 295 295 295 295 294 294 294 293 293 293 293 292 292 292 292 291 291 291 291 291 291 291 291 291 291 290 290 290 290 290 291 291 291 292 292 293
310 308 308 307 305 302 301 300 299 298 297 296 295 294 294 294 294 294 294 294 294 294 294 295 295 295 295 294 295 295 295 295 294 294 294 293 293 292 292 292 291 291 291 291 291 291 291 291 291 290 291 291 291 290 290 290 290 290 291 291 291 292 293
310 308 307 306 304 302 301 300 299 297 297 296 294 294 294 294 294 294 294 294 294 294 294 295 295 295 295 294 295 295 296 295 294 294 294 293 292 292 292 291 291 291 291 291 291 291 291 291 290 290 291 291 291 291 290 290 290 290 290 291 291 292 292
310 308 307 305 303 302 301 299 298 297 297 296 294 294 294 294 294 294 294 294 294 294 294 295 295 295 294 294 295 296 296 295 294 293 293 292 292 292 291 291 291 291 291 291 291 291 291 291 290 290 290 291 291 291 291 291 290 290 290 290 291 291 292
310 308 307 306 304 302 300 299 298 297 297 296 294 294 294 294 294 294 294 294 294 293 294 294 295 294 294 294 295 295 295 295 294 293 292 292 292 291 291 291 291 291 290 291 291 291 291 291 291 291 290 291 291 291 291 291 291 291 290 290 290 291 291
310 309 308 306 304 302 300 299 298 297 297 296 294 294 294 294 294 294 294 294 294 293 294 294 294 294 294 294 294 294 294 294 294 293 292 292 292 291 291 291 291 291 290 291 291 291 291 291 291 291 291 291 291 291 291 291 291 291 291 290 290 290 291
310 309 308 306 304 301 300 299 298 297 297 295 294 294 294 294 294 294 294 294 294 293 294 294 294 294 294 294 294 294 294 293 293 293 292 292 292 291 291 291 291 290 290 291 291 291 291 291 291 291 292 292 292 291 291 291 291 291 291 291 290 290 291
310 309 308 305 303 301 301 300 299 297 297 296 294 294 294 294 294 294 294 294 294 294 293 294 294 294 294 294 293 293 293 293 293 293 292 292 292 291 291 291 291 290 291 291 291 291 291 291 291 291 292 293 293 292 292 292 292 291 291 291 291 290 290
310 309 307 305 303 302 302 300 299 298 297 296 295 294 294 294 293 294 293 293 293 293 293 293 293 293 293 293 293 293 293 292 292 292 292 292 291 291 291 291 291 291 291 291 292 291 291 291 291 292 293 293 293 293 293 293 292 292 291 291 291 291 291
310 309 307 305 304 303 302 300 299 298 298 296 294 293 294 293 293 293 293 293 293 293 293 293 293 293 293 293 293 293 293 292 292 292 292 292 291 291 291 291 291 291 291 292 292 291 291 291 292 292 293 293 293 293 292 292 292 292 292 291 291 291 291
310 309 307 306 304 303 302 300 299 299 298 296 294 293 293 293 293 293 293 293 293 293 293 293 293 293 293 293 293 293 292 292 292 292 292 291 291 291 291 291 291 291 292 292 292 291 291 292 292 292 293 293 293 293 293 292 292 292 292 292 292 291 291
310 309 307 306 304 303 302 300 300 298 297 296 293 293 293 293 293 293 293 293 293 293 293 293 292 293 293 293 293 293 293 292 292 292 292 291 291 291 291 291 292 292 292 292 292 292 292 292 292 292 293 293 293 293 293 293 293 293 293 293 292 292 292
310 309 308 306 305 303 302 301 300 299 297 296 294 292 293 293 293 293 293 293 293 293 293 293 293 293 293 293 293 293 293 293 292 292 292 292 292 291 291 292 292 292 292 292 292 292 292 292 292 293 293 293 293 293 293 293 294 294 293 293 293 293 292
310 309 308 306 305 304 302 302 301 299 298 296 294 292 292 293 293 293 293 293 293 293 293 293 293 293 293 293 293 293 293 293 293 293 292 292 292 292 292 292 292 292 292 292 292 292 292 293 293 293 293 293 293 294 294 294 294 294 294 294 294 293 293
310 309 308 306 305 304 303 302 300 299 298 297 295 292 292 292 293 293 293 293 293 293 292 293 293 293 293 293 293 293 293 293 293 293 293 292 292 292 292 292 293 293 293 293 293 293 292 293 293 293 293 294 294 294 294 294 294 294 294 294 294 294 293

ECMWFFLT1_850_thetae_111.txt.gz
Theta_e
334 334 333 331 330 330 330 330 330 330 330 329 327 326 325 324 325 325 324 320 315 313 311 310 308 307 306 304 303 302 301 301 301 301 302 302 302 301 301 301 300 300 300 299 299 300 301 300 297 296 296 296 296 295 295 295 295 295 294 294 294 294 295
334 333 332 331 330 330 330 331 330 330 329 328 326 325 324 324 324 323 318 314 312 311 309 308 306 305 303 301 301 301 301 301 301 301 302 301 301 301 300 300 300 299 299 300 299 298 298 299 297 295 295 296 295 295 294 294 294 294 294 294 294 294 294
333 332 331 331 331 331 331 330 330 329 328 327 326 324 323 323 321 317 314 312 310 308 307 305 304 302 301 300 300 300 300 301 301 301 301 301 301 300 300 300 300 300 300 299 299 298 298 298 297 295 295 295 295 295 294 294 294 294 294 294 294 294 294
333 331 331 331 331 331 330 329 329 328 327 326 325 324 322 320 317 313 311 309 307 306 304 302 301 300 300 299 300 300 300 301 301 300 301 300 300 300 300 300 300 300 300 299 299 298 298 297 296 296 295 295 295 295 294 294 294 294 294 294 294 294 294
333 332 332 331 331 330 328 328 328 327 326 326 325 323 319 316 313 311 309 307 305 303 301 300 299 299 299 299 299 300 300 300 300 300 300 300 300 300 300 300 300 299 299 299 298 298 297 297 296 296 295 295 295 295 294 295 294 294 294 294 294 294 294
333 332 331 331 330 328 327 327 327 326 325 325 324 321 316 313 311 308 306 304 302 300 299 299 299 299 299 299 299 300 300 300 300 300 300 300 300 300 300 299 299 299 299 298 298 297 297 296 296 296 295 295 295 294 294 295 294 294 294 294 294 294 294
332 331 330 329 328 327 327 327 326 325 324 324 322 317 313 310 308 306 303 302 300 299 299 299 299 299 299 299 299 300 300 299 299 300 300 300 299 299 299 299 298 298 298 297 297 296 296 296 296 295 295 295 295 295 294 294 294 294 294 294 294 294 294
331 329 328 328 328 328 327 326 325 324 322 321 318 314 310 308 305 303 301 300 299 299 299 298 299 299 298 299 299 299 300 299 299 299 299 299 299 299 298 298 298 298 297 296 296 296 296 295 295 295 295 295 296 296 295 294 295 294 294 294 294 293 293
330 328 328 328 329 328 326 325 323 321 320 317 314 310 308 305 303 301 300 299 298 298 298 298 298 298 298 298 299 299 299 299 299 299 299 299 298 298 298 297 297 297 296 296 295 295 295 295 295 295 295 295 295 295 295 295 295 294 293 293 294 294 294
328 328 328 329 328 326 325 323 321 319 317 313 310 307 305 303 301 300 299 298 298 298 298 298 298 298 298 298 298 299 299 298 298 298 298 298 298 297 297 297 296 296 295 295 295 295 295 295 295 295 295 294 294 293 294 296 296 294 293 293 293 294 294
328 329 329 328 326 325 324 321 319 317 314 310 307 305 303 301 300 299 299 298 298 298 297 297 297 297 297 298 298 298 298 298 298 298 298 297 297 296 296 296 296 296 295 294 294 294 294 295 294 294 294 293 293 293 292 294 296 294 292 293 293 293 293
329 330 329 327 325 324 322 320 318 315 310 306 305 303 301 300 299 299 298 298 298 298 297 297 297 297 297 297 297 298 298 297 297 297 297 297 296 295 295 295 295 295 294 294 294 294 294 294 294 293 293 293 292 292 292 293 294 294 292 292 293 293 293
330 329 327 326 324 323 321 318 316 312 307 304 303 301 300 299 299 298 298 298 298 297 297 297 297 296 297 297 297 297 297 296 296 297 296 296 295 295 294 295 295 294 294 294 294 294 294 293 293 293 293 292 292 292 292 292 293 293 292 292 292 293 293
329 327 326 325 323 321 319 317 315 310 304 302 302 300 299 299 299 299 298 298 298 297 296 296 296 296 296 297 297 297 296 296 296 296 295 295 295 294 294 294 294 294 293 293 294 294 293 293 293 292 292 292 292 291 292 291 292 293 293 292 292 292 292
327 326 325 323 321 319 317 315 313 308 302 301 300 299 299 299 298 299 299 298 298 297 296 296 296 296 296 296 296 296 296 295 295 295 295 295 294 294 294 294 294 293 293 293 293 293 293 293 292 292 292 292 291 291 291 292 291 292 292 292 292 292 292
326 325 323 322 320 318 316 315 311 305 301 300 299 299 299 298 298 299 299 298 297 296 296 296 296 296 295 296 296 296 296 295 295 295 295 294 294 294 294 294 293 293 293 293 293 293 293 292 292 292 292 292 292 292 291 292 291 291 292 292 292 292 292
326 324 322 321 319 316 315 314 309 303 300 299 298 298 298 298 298 298 298 297 296 296 296 296 296 296 295 295 295 295 295 295 295 294 294 294 294 293 294 293 293 293 293 293 293 293 293 292 292 292 292 292 292 292 292 292 291 291 291 291 292 292 292
324 323 321 320 317 315 314 312 307 301 299 298 298 298 298 298 298 297 297 297 296 296 296 296 296 295 295 295 295 295 295 294 294 294 294 294 293 293 293 293 293 293 293 293 293 293 292 292 292 292 292 292 292 292 292 292 292 291 291 291 291 291 291
323 322 320 318 316 313 313 311 305 300 299 298 297 297 298 298 297 297 296 296 296 296 295 295 295 295 295 295 295 294 294 294 294 294 293 293 294 293 293 293 293 293 293 293 293 293 292 292 292 292 292 292 292 292 292 292 292 292 291 291 291 291 291
323 321 319 317 314 312 312 309 303 299 299 298 297 297 297 297 297 296 296 296 296 295 295 295 295 295 295 295 294 294 294 294 294 293 293 293 294 293 293 293 293 293 293 293 293 292 292 292 292 292 292 292 292 292 292 292 292 291 291 291 291 291 291
321 319 317 315 313 312 311 307 301 298 299 298 297 297 296 296 296 296 296 296 295 295 295 295 295 295 295 295 294 294 294 294 293 293 293 293 293 293 293 293 293 293 293 292 292 292 292 292 292 292 292 292 292 292 292 292 292 291 291 291 291 291 291
319 317 315 314 312 311 309 304 300 299 299 298 297 297 296 296 295 295 296 295 295 295 295 295 295 296 296 295 294 294 294 294 293 293 293 293 293 293 293 293 293 292 292 292 292 292 292 292 292 292 292 292 292 292 292 292 291 291 291 291 291 291 291
318 316 314 313 312 310 307 302 299 299 299 298 297 296 296 295 295 295 295 295 295 295 295 295 295 296 295 295 295 295 294 294 293 293 293 293 293 293 293 293 292 292 292 292 292 292 291 291 291 291 291 291 292 292 292 292 291 291 291 291 290 290 291
317 315 313 311 310 309 305 301 300 300 299 298 296 295 295 295 295 294 294 294 294 294 295 295 295 295 295 295 295 295 295 294 293 293 293 293 293 293 293 293 292 292 292 292 292 292 291 291 291 291 291 291 291 291 291 291 291 291 291 291 291 290 291
317 315 312 310 309 307 304 301 300 300 299 298 296 295 294 295 295 294 294 294 294 294 294 295 295 295 295 295 295 295 295 294 293 293 293 293 293 293 293 292 292 293 293 293 292 292 292 292 292 292 291 291 291 291 291 291 291 291 291 291 291 290 290
318 314 311 309 308 305 302 301 301 300 299 298 296 295 295 295 294 294 294 294 294 294 294 295 295 295 294 294 295 296 295 294 293 293 292 292 293 293 292 292 292 293 293 293 293 293 293 292 292 292 292 292 292 292 291 291 291 291 291 291 291 291 290
317 314 310 308 307 305 302 301 301 300 298 297 295 295 295 294 294 294 294 294 294 294 294 294 295 295 294 295 296 296 295 294 293 292 292 292 292 292 292 292 292 293 293 293 293 293 293 293 293 293 293 293 293 293 292 292 292 291 291 291 291 291 291
317 313 310 308 307 305 303 302 301 299 298 297 295 294 294 294 294 294 294 294 294 294 294 294 295 295 294 295 296 296 295 295 294 292 292 292 292 292 292 292 293 293 293 293 294 294 294 294 294 294 294 294 293 293 293 293 292 292 292 292 291 291 291
316 313 310 308 306 304 303 302 301 299 298 297 296 294 294 294 294 294 294 294 294 294 294 294 294 295 294 295 295 295 295 294 294 293 292 292 292 292 292 292 293 293 294 294 294 294 294 294 294 294 294 294 294 294 294 293 293 293 292 292 292 291 291
315 313 310 308 306 304 303 302 301 299 298 297 296 294 294 294 294 294 294 294 294 293 293 294 294 294 294 295 295 295 294 294 293 293 292 292 292 292 292 292 293 293 294 294 294 294 294 294 295 295 295 295 294 294 294 294 294 294 294 293 293 292 292
315 313 311 309 307 305 303 302 301 298 297 297 295 294 294 294 293 293 293 294 293 293 293 294 294 294 294 294 294 294 294 293 293 293 292 292 292 292 292 292 293 293 294 294 294 294 294 294 295 295 295 294 294 294 294 294 294 294 294 294 294 294 293
314 313 311 310 308 306 303 302 300 298 297 296 295 294 294 293 293 293 293 293 293 293 293 294 294 294 294 294 294 293 293 293 293 292 292 292 292 292 292 293 293 293 294 294 294 294 294 294 295 295 295 294 294 294 294 294 294 294 294 294 294 294 294
313 313 311 310 308 306 303 301 301 298 297 297 295 294 293 293 293 293 293 293 293 293 293 293 294 294 294 293 292 292 292 292 292 292 292 292 292 293 293 293 293 294 294 294 294 294 294 294 294 294 294 294 294 294 294 294 294 294 293 293 293 294 294
313 312 311 310 308 305 302 302 301 298 297 297 296 294 293 293 293 293 293 293 293 293 293 293 293 293 293 292 292 292 292 293 292 292 292 292 293 293 293 293 293 294 293 293 293 294 294 294 294 294 294 294 294 294 294 294 294 293 293 293 293 293 294
313 312 310 310 308 305 303 303 302 299 298 297 296 293 293 293 293 293 293 293 293 293 294 294 293 292 292 292 292 292 292 292 292 292 293 293 293 293 293 293 293 293 293 293 293 293 294 294 294 294 294 294 294 294 294 294 294 293 293 293 293 293 293
313 311 310 309 308 305 304 303 303 301 299 298 296 293 292 292 293 293 293 293 294 294 293 293 293 293 292 292 292 292 292 292 293 293 293 293 293 293 293 293 293 293 293 293 293 293 293 293 294 294 294 294 293 293 293 293 293 293 293 293 293 293 293
312 311 310 309 308 306 305 304 303 302 301 299 296 293 292 292 293 292 293 294 294 293 293 292 292 292 292 292 292 292 292 293 293 293 293 293 294 294 293 293 293 293 293 293 293 293 293 293 293 293 293 293 293 293 293 293 292 292 293 292 292 292 292

ECMWFFLT1_850_thetae_114.txt.gz
Theta_e
334 333 332 332 331 329 329 328 328 329 328 326 326 325 324 324 325 325 325 321 316 313 311 310 309 308 305 303 302 302 301 301 301 300 300 300 300 300 300 300 300 299 300 303 306 308 309 306 303 301 299 297 296 295 296 296 296 296 296 296 297 298 297
334 333 332 332 331 329 328 328 328 327 327 326 326 326 324 324 325 323 319 315 312 311 309 308 307 304 302 302 301 301 301 300 300 300 300 300 300 300 299 299 299 299 299 299 300 304 307 306 305 304 304 303 300 296 295 296 297 298 297 296 297 298 297
334 333 332 331 330 328 328 328 327 326 326 326 326 325 324 322 321 318 314 312 310 309 307 305 303 302 301 301 301 301 300 300 300 300 300 300 300 299 300 300 300 301 301 300 300 303 306 305 304 304 304 305 304 299 296 296 298 299 298 297 297 297 297
333 332 332 331 330 329 328 328 327 326 326 326 326 325 322 320 317 314 312 310 308 306 304 303 301 301 301 301 300 300 300 300 300 300 300 300 299 299 299 299 300 300 300 299 299 302 304 306 305 303 302 303 303 301 298 297 299 299 298 298 297 297 296
333 332 332 331 330 329 328 328 327 325 325 325 326 324 320 317 314 311 309 307 305 304 302 301 301 301 300 300 300 300 300 300 300 299 299 299 299 299 299 299 299 299 298 298 297 298 300 303 305 303 302 302 302 301 300 300 300 299 299 298 297 297 297
332 332 331 330 330 329 328 328 326 324 324 324 325 322 318 314 312 309 307 305 303 301 300 300 300 300 300 300 300 300 299 299 299 299 299 299 299 299 299 299 299 298 298 297 297 297 297 298 302 304 304 303 302 302 302 301 301 300 299 299 298 298 297
332 331 331 330 329 328 328 327 325 324 323 324 324 321 316 312 309 307 305 302 301 300 300 300 300 299 299 299 299 299 299 299 299 299 299 299 299 299 299 298 298 298 298 298 297 298 298 297 298 302 305 306 305 304 303 302 301 299 299 298 299 298 297
331 331 331 329 328 328 327 326 325 324 324 323 322 319 314 310 307 305 303 301 300 299 299 299 299 299 299 299 299 299 299 299 299 299 299 299 299 298 298 298 298 298 297 298 297 297 297 297 296 297 301 305 306 304 303 303 301 299 298 298 299 297 296
331 331 329 328 328 328 327 326 324 323 322 320 318 315 311 307 305 303 301 300 299 299 299 299 299 298 298 299 299 299 299 299 298 298 298 298 298 298 298 298 297 298 297 297 297 297 297 296 296 296 297 300 303 304 303 303 302 300 298 298 298 297 296
331 330 328 328 328 327 327 325 323 322 320 317 315 311 308 305 303 301 300 299 299 299 298 298 298 298 298 298 298 298 298 298 298 298 298 298 298 297 297 297 297 297 297 297 297 296 296 296 295 296 296 296 298 301 303 303 303 300 298 298 298 297 296
331 329 328 328 328 327 325 324 322 321 318 315 312 308 305 303 301 299 299 298 298 298 298 298 298 298 298 298 298 298 298 298 298 298 297 297 297 297 297 297 297 297 296 296 296 296 296 296 295 296 296 295 296 298 300 303 303 299 298 297 297 297 295
330 329 328 328 327 325 324 323 321 319 316 312 309 306 303 301 300 299 298 298 298 298 298 298 297 297 298 298 298 298 297 297 297 297 297 297 297 296 296 297 297 296 296 295 295 295 295 295 295 295 295 295 295 295 297 300 302 300 298 297 296 296 295
329 328 328 328 326 325 323 322 321 317 313 309 306 304 301 299 299 298 298 298 298 298 297 297 297 297 297 298 297 297 297 297 297 297 297 297 296 296 296 296 296 296 295 295 295 295 295 295 295 295 295 295 295 294 295 298 300 300 298 296 295 296 296
328 328 328 327 325 324 323 321 319 315 310 306 304 302 300 299 298 298 298 297 297 297 297 297 297 297 297 297 297 297 296 296 296 297 296 296 296 296 296 295 295 295 295 295 295 295 295 295 295 295 295 295 295 294 294 295 298 299 298 296 295 296 296
328 328 328 326 325 324 322 320 318 312 307 304 302 300 299 298 298 298 297 297 297 297 297 297 297 297 296 297 297 296 296 296 296 296 296 296 295 295 295 295 295 294 294 294 294 295 295 295 295 294 295 295 294 294 294 294 296 297 297 297 297 297 296
329 329 328 326 324 323 320 319 316 309 304 303 301 300 299 298 298 298 297 297 297 297 297 297 296 296 296 296 296 296 296 296 296 296 296 295 295 295 295 294 294 294 294 294 294 294 294 294 295 294 294 294 294 293 294 294 295 296 297 297 298 297 297
329 328 327 325 323 321 319 318 314 307 302 302 300 299 299 298 298 298 297 297 296 296 297 296 296 296 295 296 296 296 296 296 296 295 295 295 295 294 294 294 294 294 294 294 294 294 294 294 294 294 295 295 295 294 294 294 295 295 297 298 299 298 298
329 327 326 325 323 321 319 317 312 304 301 301 299 299 298 298 298 297 297 296 296 296 296 296 295 295 295 295 295 296 296 296 295 295 295 294 294 294 293 293 293 294 294 294 294 294 294 294 294 294 294 295 295 294 294 295 294 295 297 299 299 299 299
328 326 326 324 323 320 318 316 310 303 300 300 299 298 298 298 298 297 296 296 296 296 296 295 295 295 295 295 295 295 295 295 295 294 294 294 293 293 293 293 293 293 293 293 294 294 294 294 294 294 294 294 294 294 295 295 295 296 297 298 299 299 299
327 326 325 323 322 319 317 315 308 302 300 299 298 298 298 297 298 298 297 297 296 296 296 295 295 295 295 295 295 295 295 295 295 294 294 293 293 293 293 293 293 293 293 294 294 294 294 294 294 294 294 294 294 294 295 295 296 296 297 298 298 298 298
326 325 324 322 321 318 316 313 306 301 299 298 297 298 298 297 298 299 299 298 297 297 296 295 295 295 295 295 294 295 294 294 294 294 294 293 293 293 293 293 293 293 293 294 294 294 295 295 294 294 294 294 294 294 294 295 296 296 297 297 298 298 298
325 324 322 321 319 317 315 311 305 300 299 298 297 297 298 297 298 299 299 297 297 296 295 295 295 295 295 294 294 294 294 294 294 293 293 293 293 292 292 293 293 293 294 294 294 295 295 295 295 294 294 294 294 294 294 294 295 295 296 297 297 297 298
324 323 321 320 318 316 314 310 303 300 299 298 297 297 297 297 298 298 298 297 296 295 295 296 295 295 295 295 294 294 294 294 293 293 293 293 292 292 292 292 293 293 293 294 294 294 295 295 295 295 295 295 295 295 294 294 294 294 295 296 297 297 297
323 322 320 319 317 315 313 309 302 299 299 298 297 297 296 297 298 298 297 297 296 295 295 295 295 295 295 295 295 295 294 294 293 294 294 293 293 293 292 292 292 293 293 293 294 294 294 294 294 294 294 294 295 295 294 295 294 294 294 295 295 296 296
323 321 319 317 316 314 313 308 301 299 299 298 297 296 296 297 297 297 297 297 296 295 295 295 296 296 295 295 295 296 296 294 294 295 295 295 296 295 293 292 292 292 293 293 293 294 293 294 294 294 294 294 295 295 294 295 295 294 294 294 294 295 295
322 320 318 317 315 313 312 306 300 299 299 298 297 296 296 297 297 296 296 296 296 295 294 295 296 295 296 295 294 297 298 296 296 297 296 296 297 296 295 295 293 292 293 293 293 293 293 294 294 294 295 295 295 295 295 295 294 294 294 294 294 294 293
322 319 318 317 314 313 311 306 300 299 300 298 297 296 295 296 296 295 296 296 296 295 294 295 296 295 296 295 294 298 300 298 297 298 296 295 296 294 294 296 296 294 293 293 294 294 294 294 294 294 295 295 295 295 294 294 294 294 294 294 294 294 293
321 319 318 316 313 312 310 306 301 300 300 298 297 296 295 295 295 295 295 295 296 296 295 294 295 295 295 295 294 297 300 300 299 299 297 294 295 294 292 294 295 294 293 293 294 294 294 295 295 295 295 295 295 295 294 294 294 294 294 294 294 294 294
321 319 318 316 313 311 309 305 301 300 300 299 298 296 295 295 295 294 295 296 297 297 295 294 296 295 294 295 295 296 300 301 301 300 298 295 294 294 292 293 294 293 293 294 294 294 295 295 295 295 295 295 295 296 295 294 294 294 294 293 293 293 294
321 319 318 316 313 311 309 305 301 300 300 299 298 296 294 294 294 294 295 295 296 296 295 294 295 295 294 295 295 296 300 302 301 301 300 297 295 294 292 293 294 293 293 294 294 294 295 295 295 295 295 295 296 296 295 294 294 294 294 294 293 293 294
320 318 317 315 313 311 309 304 301 300 299 298 297 296 294 294 294 294 294 294 294 295 294 294 295 295 295 295 295 296 299 301 301 302 300 297 296 296 293 292 294 294 293 294 294 294 295 295 295 295 295 295 296 295 294 294 294 294 294 294 293 293 294
319 317 316 314 313 311 308 304 301 300 299 298 297 296 294 293 294 293 293 293 293 294 294 294 294 295 294 294 295 295 296 299 301 300 298 296 295 294 293 292 293 294 294 294 294 294 295 295 295 295 295 295 296 295 294 294 294 294 293 293 294 295 295
320 318 316 314 312 310 307 304 302 301 300 299 299 297 294 293 294 293 293 293 293 293 293 293 294 294 294 294 294 294 297 301 301 297 295 296 295 293 292 293 293 293 294 294 294 294 294 294 295 295 295 295 295 295 294 294 294 293 294 295 296 297 297
320 318 316 314 312 309 306 304 303 302 301 300 299 298 295 293 293 293 293 293 293 293 293 293 294 294 294 294 294 294 297 301 300 297 295 296 296 295 294 293 294 294 294 294 294 294 294 294 294 294 294 295 294 294 294 294 293 293 295 296 297 297 297
319 317 315 313 311 308 306 304 303 303 302 300 299 297 294 293 293 293 293 293 293 293 293 293 294 294 294 294 294 293 295 297 297 298 298 296 296 297 296 295 295 294 293 294 294 294 294 294 294 294 294 294 294 294 294 293 293 294 296 297 297 297 297
318 316 314 313 311 309 307 305 304 304 302 300 298 297 294 293 292 293 293 292 293 293 293 293 294 294 294 294 293 293 293 293 293 295 297 296 296 297 296 295 294 294 294 294 294 294 294 294 294 294 294 294 294 293 293 294 294 296 296 297 297 297 297
318 316 314 312 310 309 308 306 305 304 302 300 299 297 295 293 292 292 292 292 293 293 293 293 294 294 294 293 293 293 293 293 292 292 293 295 295 295 294 294 294 294 294 294 294 294 294 294 294 294 294 294 293 293 294 295 296 296 296 296 296 296 296

ECMWFFLT1_850_thetae_117.txt.gz
Theta_e
333 333 333 333 333 332 331 330 329 329 329 328 328 327 325 325 325 325 326 324 320 316 313 312 310 309 308 306 304 303 302 302 304 306 303 303 304 301 303 304 302 306 308 310 315 313 312 310 306 305 304 301 299 298 299 301 301 302 301 301 303 302 301
334 333 332 331 332 331 330 329 329 329 328 327 328 327 325 324 324 325 323 319 315 313 311 310 309 307 305 303 302 302 302 302 302 303 302 302 302 301 300 301 301 301 303 306 310 310 311 311 309 308 308 308 305 300 297 300 302 303 302 302 302 301 301
334 333 332 331 331 330 329 329 328 328 328 328 328 327 325 324 324 322 318 314 312 311 310 308 306 303 302 302 302 301 301 302 301 301 301 301 301 301 301 306 309 307 307 308 308 309 309 309 308 308 308 309 309 305 300 302 304 303 302 302 302 301 301
334 333 332 331 331 330 329 328 328 327 328 329 327 326 325 324 321 317 314 312 310 309 308 305 303 301 301 301 301 301 301 301 301 301 301 301 301 301 301 306 310 310 309 309 309 311 310 309 307 306 306 306 306 306 303 303 304 303 302 302 301 301 301
333 333 332 331 331 329 329 328 327 327 327 327 326 325 324 321 317 314 311 310 308 307 305 303 302 301 301 301 301 301 301 300 300 300 300 300 300 300 300 301 303 303 304 305 306 308 309 310 308 305 305 305 305 305 304 304 304 302 302 302 301 301 300
333 334 332 331 330 329 329 328 327 326 325 325 324 323 323 318 314 311 310 308 307 305 303 301 301 301 301 301 301 300 300 300 300 300 300 300 299 299 299 299 299 299 299 300 300 303 306 309 310 308 306 306 307 306 305 304 303 302 301 301 301 300 300
333 333 332 331 330 329 328 327 326 325 324 324 322 322 321 315 312 310 309 307 305 302 301 301 301 300 300 300 300 300 300 300 300 300 299 299 299 299 299 299 299 298 298 298 298 299 302 305 307 309 310 309 308 306 305 304 302 302 301 301 301 300 300
333 332 331 330 329 328 328 327 326 325 324 323 322 321 319 315 312 309 307 305 302 301 300 300 300 300 300 300 300 300 300 300 299 299 299 299 299 299 299 299 298 298 298 298 298 298 298 299 302 306 309 311 309 306 306 305 303 302 301 301 301 301 300
333 332 331 330 329 328 327 327 326 325 324 323 321 320 318 313 309 307 305 303 301 300 300 300 300 300 299 299 299 299 300 299 299 299 299 299 299 298 298 298 298 298 298 298 298 298 297 297 297 300 303 306 307 307 307 306 304 302 301 301 301 301 300
332 331 331 329 328 327 327 327 325 324 323 321 319 318 315 310 307 305 303 301 300 300 299 299 299 299 299 299 299 299 299 299 299 299 298 298 298 298 298 298 298 298 298 298 297 297 297 297 297 297 298 300 304 306 307 307 305 302 301 302 301 301 300
332 331 330 329 328 328 328 327 325 324 322 319 318 316 312 307 305 303 301 300 299 299 299 299 299 299 299 299 299 299 299 299 298 298 298 298 298 298 298 298 298 298 297 297 297 297 297 297 297 297 296 297 299 302 305 307 306 302 301 301 301 301 301
331 330 329 328 328 328 328 326 323 322 320 318 317 314 309 305 303 301 300 299 299 299 299 299 299 298 299 299 299 298 298 298 298 298 298 298 298 298 297 297 297 297 297 297 297 297 297 297 297 297 297 297 297 298 301 304 305 303 301 300 300 301 301
331 330 329 328 328 328 327 324 322 320 318 317 315 311 306 303 301 299 299 299 299 299 299 298 298 298 299 298 298 298 298 298 298 298 298 297 297 297 297 297 297 297 297 296 296 296 296 296 297 297 298 298 297 296 298 302 304 303 302 301 301 302 301
330 329 328 328 328 328 325 323 322 319 318 316 312 307 304 302 300 299 299 298 298 298 298 298 298 298 298 298 298 298 297 297 297 297 297 297 297 297 297 297 297 297 297 297 297 298 298 298 298 298 298 298 297 296 296 299 303 304 302 301 302 303 302
329 329 328 328 328 327 324 323 320 318 317 314 309 305 303 300 299 298 298 298 298 298 298 298 298 298 298 298 298 297 297 297 297 297 296 296 296 297 296 296 296 296 296 296 297 298 298 299 299 298 297 297 297 297 296 297 301 303 302 302 302 302 302
329 329 328 328 328 326 324 322 319 317 315 311 307 305 302 299 298 298 298 298 298 298 298 298 298 297 297 297 297 297 297 296 296 296 296 296 296 296 296 296 296 296 296 296 296 296 297 298 298 298 297 297 297 297 296 297 300 302 302 303 303 302 302
329 328 328 328 327 325 324 321 318 316 313 309 306 305 302 299 299 298 298 298 298 298 298 298 297 297 297 297 297 297 297 296 296 296 296 295 295 296 296 296 296 296 296 296 295 296 296 297 297 297 298 299 299 297 297 299 301 302 302 303 303 302 302
329 328 328 328 326 325 323 320 317 315 312 308 307 305 302 300 299 297 298 298 298 298 298 297 297 297 297 297 296 296 296 296 296 296 296 296 296 295 295 295 296 296 296 296 295 295 296 296 297 297 297 300 300 298 298 301 301 301 302 302 302 302 302
329 329 329 327 326 324 322 318 316 314 311 309 307 304 302 301 300 298 299 299 298 297 297 297 297 297 297 296 296 296 296 296 296 296 295 295 295 295 295 295 296 296 296 296 295 295 296 296 296 296 296 297 298 297 299 301 301 301 302 302 302 302 301
329 329 328 327 326 323 321 318 315 313 312 309 306 303 303 303 301 302 302 300 300 298 297 297 297 297 297 296 296 296 296 295 295 295 295 295 295 295 295 295 295 295 295 295 295 295 296 296 296 296 296 296 296 296 299 301 301 301 301 301 301 301 300
329 329 328 327 325 323 320 318 315 313 311 310 306 304 305 303 302 305 304 301 301 299 298 298 298 297 298 297 296 295 295 295 296 295 295 295 295 295 295 295 295 295 295 295 295 296 296 296 296 296 295 296 296 296 298 300 300 300 300 300 300 300 300
328 328 327 327 325 323 320 317 314 312 311 308 305 305 305 303 303 306 304 301 301 299 299 300 299 298 299 298 297 296 296 296 295 295 295 295 295 295 295 295 295 295 295 295 295 295 296 296 296 296 296 296 296 296 296 298 299 299 299 300 300 300 300
327 328 327 327 325 322 319 316 314 312 310 307 305 304 305 304 304 306 304 302 301 299 299 300 299 300 300 299 299 298 297 297 296 296 296 296 295 295 294 294 294 294 295 295 295 295 296 296 296 296 296 296 296 296 295 296 297 297 297 299 300 299 299
328 328 327 326 324 321 318 316 313 311 309 308 305 304 305 305 306 306 305 303 302 300 299 299 298 298 299 300 300 299 299 299 298 298 297 296 296 296 295 294 294 294 294 295 295 295 295 296 296 296 296 295 295 295 295 295 295 295 296 298 299 299 298
329 328 327 326 324 320 317 315 313 311 309 307 305 305 306 306 307 307 306 305 303 300 299 299 297 296 297 298 300 301 302 301 300 299 299 298 297 296 296 296 294 294 294 295 295 296 295 295 295 295 295 295 295 295 295 295 295 294 295 296 297 298 298
328 327 327 325 323 320 316 314 312 310 309 306 304 305 306 307 307 306 306 306 304 300 299 297 296 295 296 296 297 302 304 302 301 302 301 300 299 298 297 297 295 294 294 294 295 297 298 297 295 295 295 295 295 295 295 294 295 294 294 295 296 297 296
328 327 326 324 322 319 315 313 312 310 308 305 303 305 307 308 307 305 306 306 305 302 299 296 296 295 296 295 295 300 304 302 302 303 300 299 300 299 298 299 300 298 295 294 295 297 297 298 297 297 298 298 297 297 296 295 294 294 294 294 294 295 294
328 327 325 322 322 319 314 313 312 309 306 304 303 304 306 307 308 306 306 306 306 304 299 296 296 295 296 296 294 299 303 301 299 300 298 296 298 298 296 298 302 301 297 295 294 295 295 296 297 299 300 300 300 300 299 296 294 294 294 294 294 294 294
328 326 324 322 321 319 316 315 312 309 306 305 304 304 305 307 308 307 305 305 306 305 300 295 295 295 295 296 294 297 300 299 298 300 300 297 296 297 296 295 299 300 297 294 294 295 295 295 296 298 301 301 301 302 301 298 295 294 294 294 294 294 295
328 326 324 322 321 318 316 314 312 309 306 304 303 304 305 307 308 306 304 305 306 305 300 295 295 295 295 295 295 295 297 299 301 302 302 299 298 298 296 294 298 300 297 294 294 294 295 295 295 297 301 301 301 302 301 298 295 294 294 294 294 295 297
327 326 324 323 320 318 316 313 312 309 305 302 301 302 303 305 306 305 304 305 306 304 300 295 295 295 295 295 295 294 297 301 302 303 303 302 300 299 297 293 296 300 298 296 294 294 295 295 295 297 299 300 301 302 301 297 295 294 294 294 296 298 299
327 326 324 323 320 317 315 313 311 309 306 302 301 301 301 302 302 302 301 302 303 304 301 295 294 295 294 295 295 294 297 302 303 303 304 304 301 301 300 295 293 295 297 296 294 294 295 294 295 296 297 300 302 301 299 296 294 294 294 295 298 300 300
327 326 324 323 320 317 315 313 311 309 306 303 300 300 301 300 298 298 298 299 301 303 302 296 294 295 294 295 295 294 298 303 304 303 304 303 302 302 300 297 293 293 294 294 294 294 294 295 295 294 296 299 300 298 296 295 294 294 296 298 300 300 299
327 326 324 322 319 317 315 313 312 310 307 303 301 300 300 299 297 297 298 298 299 302 301 296 294 295 294 294 294 295 300 304 305 304 304 303 302 302 301 299 297 294 293 294 294 294 294 294 295 294 295 296 296 295 294 294 294 296 298 300 300 299 299
327 326 324 321 319 317 315 313 311 310 306 303 301 300 299 298 297 296 297 298 297 298 299 296 294 294 294 294 294 295 299 303 304 304 303 302 302 302 302 301 299 296 294 294 293 294 294 294 295 295 294 295 294 294 294 294 296 299 300 299 299 299 299
327 326 324 322 320 317 315 313 311 308 305 302 301 300 298 297 296 296 297 298 297 296 297 296 294 293 294 294 294 294 296 300 302 302 302 302 302 301 301 301 300 298 296 294 293 294 294 294 294 294 294 294 294 294 294 296 299 300 300 299 299 299 299
326 325 323 321 318 316 314 313 310 307 304 302 301 300 299 299 298 297 297 298 298 297 297 296 294 293 294 294 294 294 294 296 298 299 299 301 301 301 300 300 299 298 296 294 293 294 294 294 294 294 294 294 294 294 296 299 300 300 299 299 299 299 299

ECMWFFLT1_850_thetae_123.txt.gz
Theta_e
335 335 336 336 335 334 332 332 333 334 333 333 333 332 332 330 328 327 327 328 328 327 326 326 327 325 322 321 322 322 321 319 320 322 321 317 317 316 316 322 325 320 318 316 314 314 312 310 309 306 305 305 304 303 302 301 300 300 300 300 300 300 299
336 336 336 336 335 332 331 332 333 333 333 333 332 331 330 328 327 327 327 327 327 326 325 326 324 321 319 317 316 317 316 315 317 318 314 309 308 309 311 319 322 318 316 316 314 314 313 311 310 309 309 307 307 306 305 302 300 300 301 301 301 301 300
336 336 335 334 332 330 331 333 333 333 333 332 331 330 329 328 327 327 327 326 325 325 324 323 320 316 316 315 313 313 312 312 313 312 308 304 304 305 307 312 313 314 317 316 314 313 311 309 308 309 308 306 307 307 305 303 301 301 302 301 301 301 300
336 335 334 332 330 329 331 333 333 332 332 331 330 329 328 328 327 327 326 325 324 323 321 318 315 314 313 312 311 309 308 308 308 307 305 304 303 303 303 304 305 309 313 313 313 312 309 308 307 307 307 306 307 307 305 304 302 301 302 302 301 301 301
335 334 332 330 329 329 331 332 332 332 332 331 329 328 328 327 327 326 325 323 323 322 319 315 313 312 311 310 309 307 304 304 304 304 304 303 303 302 302 302 302 303 306 307 308 310 310 308 308 306 306 307 307 305 305 304 302 301 302 302 301 301 301
335 333 331 330 329 330 332 332 332 332 331 330 328 327 328 327 327 326 324 322 322 320 317 314 312 311 311 310 307 304 303 302 302 302 303 302 302 302 301 302 302 302 303 303 304 307 308 308 308 306 306 307 307 305 305 303 302 301 301 302 301 301 301
334 333 331 331 331 331 332 332 332 332 330 329 328 327 327 327 327 326 323 321 320 318 315 313 312 311 310 308 305 303 302 302 302 302 302 302 302 302 301 301 302 301 302 302 302 303 304 306 307 305 305 306 307 306 305 303 302 302 302 302 301 302 301
333 332 332 332 332 332 331 331 331 330 329 328 328 328 327 327 327 325 323 320 318 316 314 312 311 310 308 305 303 302 302 302 302 302 302 302 301 301 301 301 301 301 301 301 300 300 301 303 305 306 306 306 306 306 304 302 302 302 302 301 301 302 301
334 333 333 333 332 331 330 330 330 329 328 328 328 328 328 328 327 325 322 319 316 314 313 312 311 308 305 303 302 302 302 302 302 302 301 301 301 301 301 301 300 300 300 300 300 300 300 300 302 305 307 306 307 306 303 303 303 303 302 299 299 301 300
335 334 334 333 332 331 331 330 330 329 328 328 327 327 328 327 327 325 321 318 315 313 312 311 309 306 303 302 302 302 301 301 301 301 301 301 301 301 300 300 300 300 300 299 299 299 299 299 300 302 306 308 309 307 306 305 305 305 304 300 298 299 300
335 335 333 333 332 331 331 330 329 328 328 327 326 326 326 326 326 324 321 317 315 313 311 309 306 303 302 301 301 301 301 301 301 301 301 301 300 300 300 300 299 299 299 299 299 299 299 299 298 300 303 306 307 306 306 308 306 306 304 300 299 299 300
335 334 332 332 332 331 330 329 328 328 327 326 326 325 325 325 325 325 322 318 315 312 310 307 304 301 301 301 301 301 301 301 301 301 301 300 300 300 299 299 299 299 299 299 298 298 298 298 298 298 299 301 300 300 303 306 306 305 303 300 299 300 301
334 333 331 332 332 331 330 328 328 327 326 326 325 324 324 325 325 325 322 318 314 311 308 305 302 301 301 301 301 301 301 300 300 300 300 300 299 299 299 299 299 299 298 298 298 298 298 298 298 298 298 298 298 298 299 301 302 301 301 300 299 300 302
334 332 331 331 331 330 329 328 328 327 326 326 325 325 326 326 325 323 320 315 312 309 306 303 301 301 300 301 301 300 300 300 300 300 300 299 299 299 299 299 299 298 298 298 298 297 298 297 298 298 298 298 298 298 298 299 299 299 299 300 299 300 301
333 332 332 331 331 329 329 328 328 327 326 326 325 326 327 325 323 320 316 312 309 306 304 301 301 300 300 300 300 300 300 300 300 300 299 299 299 299 299 298 298 298 298 298 298 298 298 298 298 298 298 298 298 298 298 298 299 298 299 299 299 300 301
333 332 332 331 330 329 329 329 328 327 326 326 326 327 326 323 319 316 313 309 306 303 301 300 300 300 300 300 300 300 300 300 300 299 299 299 299 299 298 298 298 298 298 298 298 298 298 298 298 298 298 298 299 299 298 298 299 298 298 298 299 300 301
333 333 332 331 330 329 329 329 328 327 326 326 327 327 324 320 316 314 311 308 304 302 300 300 300 300 300 300 300 300 300 299 299 299 299 299 299 298 298 298 298 298 298 298 297 297 298 298 298 298 298 298 299 298 298 298 298 298 298 298 299 300 301
333 333 332 331 330 330 329 329 328 327 326 326 327 326 322 317 314 312 309 306 303 301 300 300 300 300 299 299 299 300 300 299 299 299 299 299 298 298 298 298 298 298 298 298 297 297 297 298 298 298 298 298 298 298 298 298 298 298 298 298 299 300 300
334 333 332 331 331 330 330 329 327 327 326 327 326 323 319 314 312 310 307 304 302 300 299 299 299 299 299 299 299 299 299 299 299 298 299 298 298 298 298 298 298 298 298 297 297 297 297 297 298 298 298 298 298 298 298 298 298 297 297 297 299 299 298
334 333 332 332 331 330 330 328 327 327 326 326 325 321 317 314 310 307 304 302 300 299 299 299 299 299 299 299 299 299 299 299 299 299 298 298 298 298 298 298 298 298 298 297 297 297 297 297 297 298 298 298 297 297 297 297 297 297 296 297 297 297 296
333 333 332 332 331 330 329 328 327 327 326 326 324 319 315 313 308 305 303 301 300 299 299 299 299 299 299 299 299 299 299 299 299 298 298 298 298 298 298 298 298 297 297 297 297 297 297 297 297 297 297 297 297 297 297 297 297 297 296 296 295 295 295
333 332 332 331 330 330 329 327 327 326 326 326 322 316 313 311 307 304 302 301 300 299 299 299 299 298 299 299 299 299 299 299 298 298 298 298 298 298 298 298 297 297 297 296 296 296 297 297 297 297 297 297 297 297 297 297 297 296 296 295 295 295 294
332 332 331 330 330 329 328 327 326 326 326 325 320 315 312 310 306 304 303 301 301 299 299 299 298 298 299 299 299 299 299 298 298 298 298 298 298 298 298 297 297 297 296 296 296 296 296 297 297 297 297 297 297 297 297 296 296 296 296 295 295 294 294
331 331 330 330 330 329 328 326 326 326 326 323 318 314 312 309 306 304 303 302 301 300 300 299 298 298 298 298 299 298 298 298 298 298 298 298 298 298 297 297 297 296 296 296 296 296 296 296 297 297 297 297 297 297 296 296 296 296 295 295 294 294 294
331 331 330 330 330 328 327 326 326 326 325 321 316 314 311 309 306 304 303 303 303 302 301 301 300 299 298 298 298 298 298 298 298 298 298 298 298 297 297 297 296 296 296 296 296 296 296 296 297 297 297 297 297 296 296 297 297 296 296 295 295 294 295
331 331 330 330 329 327 326 326 326 326 324 320 316 314 311 309 306 305 304 305 304 304 303 302 301 300 299 299 299 298 298 297 297 297 297 297 297 297 297 297 296 296 296 296 296 296 296 296 297 297 297 297 297 296 297 298 298 297 297 297 295 294 296
331 331 330 330 328 326 326 326 326 326 324 319 315 314 311 309 307 306 306 306 305 305 304 302 301 301 301 300 300 298 297 297 297 297 297 297 297 297 296 296 296 296 296 296 296 296 296 296 296 297 297 296 296 296 297 299 299 299 298 298 296 295 297
331 331 330 328 327 325 325 326 326 326 324 319 316 314 311 309 308 307 307 307 307 306 304 303 302 302 302 301 300 299 298 297 296 297 296 297 297 296 296 296 296 296 296 296 296 296 296 296 296 296 296 296 296 296 297 299 300 299 299 299 297 296 298
331 330 329 327 326 326 326 326 326 326 324 319 316 314 312 310 309 308 308 308 307 307 305 304 302 302 302 301 300 299 299 298 297 297 296 296 296 296 296 296 296 296 296 296 296 296 296 296 296 296 297 296 296 296 297 299 299 299 299 299 297 297 298
331 330 328 326 325 326 327 327 326 326 324 319 316 314 312 311 310 309 309 309 308 307 306 304 302 302 301 300 299 299 299 298 298 297 297 297 297 297 297 296 296 296 296 296 296 296 296 296 296 296 296 296 296 296 297 298 298 298 299 298 297 297 299
330 329 327 325 325 327 327 327 326 326 324 320 316 314 312 311 310 309 309 309 308 307 306 304 302 302 301 300 299 298 298 299 299 299 299 299 299 299 298 297 297 296 296 297 297 296 296 296 296 296 296 296 295 296 297 297 297 297 298 297 296 297 299
329 328 326 326 326 327 328 326 325 325 324 320 317 314 312 311 310 310 309 309 308 307 307 305 303 302 301 300 299 298 298 299 300 300 300 300 300 300 299 298 297 297 296 296 296 296 296 296 296 296 296 296 295 295 296 296 296 296 296 296 296 297 298
328 328 327 327 327 328 328 325 323 322 322 320 317 315 312 311 311 310 309 309 308 307 306 305 304 302 301 299 298 298 298 299 299 300 300 300 300 300 298 297 296 296 296 296 296 295 296 295 295 295 295 296 295 295 295 296 295 295 295 296 297 298 298
328 328 328 327 327 327 326 324 323 322 322 320 318 315 313 312 311 310 310 309 309 308 306 306 304 303 301 299 298 297 297 297 298 299 299 300 300 299 298 297 296 296 296 296 295 295 295 295 295 295 295 295 295 295 295 295 295 295 296 297 297 298 299
328 328 327 326 326 325 324 322 322 322 321 321 318 315 313 312 311 310 310 309 309 308 307 306 304 303 301 299 298 297 296 297 298 298 299 300 300 300 300 299 298 298 297 296 295 295 294 295 295 295 295 295 295 295 295 295 295 295 296 297 298 298 299
328 328 327 326 325 324 323 322 322 322 322 321 319 316 314 313 311 310 310 309 308 308 307 306 304 303 302 300 298 296 295 296 297 298 299 300 300 301 302 302 301 300 298 297 296 295 294 294 295 295 295 295 295 295 295 295 295 296 297 298 298 299 299
327 327 327 325 324 324 324 323 322 322 322 321 319 317 314 313 311 310 310 309 308 307 306 305 303 302 302 300 298 297 295 295 296 297 298 299 301 303 304 304 302 301 299 298 298 296 295 294 294 294 295 295 295 295 295 295 295 297 298 298 298 299 299